TimeCST,TemperatureF,Dew PointF,Humidity,Sea Level PressureIn,VisibilityMPH,Wind Direction,Wind SpeedMPH,Gust SpeedMPH,PrecipitationIn,Events,Conditions,WindDirDegrees,DateUTC
12:06 AM,12.2,8.6,85,29.82,10.0,Variable,3.5,-,N/A,,Mostly Cloudy,0,2012-12-11 06:06:00
12:53 AM,12.0,8.1,84,29.88,10.0,South,4.6,-,N/A,,Overcast,190,2012-12-11 06:53:00
1:53 AM,10.9,8.1,88,29.87,8.0,South,5.8,-,N/A,,Overcast,180,2012-12-11 07:53:00
2:53 AM,12.0,9.0,88,29.86,10.0,South,3.5,-,N/A,,Overcast,170,2012-12-11 08:53:00
3:18 AM,12.2,8.6,85,29.78,10.0,South,4.6,-,N/A,,Mostly Cloudy,170,2012-12-11 09:18:00
3:53 AM,12.0,9.0,88,29.84,10.0,South,4.6,-,N/A,,Overcast,170,2012-12-11 09:53:00
4:53 AM,14.0,9.0,80,29.82,10.0,South,5.8,-,N/A,,Overcast,180,2012-12-11 10:53:00
5:53 AM,15.1,10.0,80,29.81,5.0,Variable,3.5,-,0.00,Snow,Light Snow,0,2012-12-11 11:53:00
6:20 AM,15.8,10.4,79,29.74,2.5,South,5.8,-,0.00,Snow,Light Snow,190,2012-12-11 12:20:00
6:53 AM,14.0,10.0,84,29.82,2.0,SSW,4.6,-,0.00,Snow,Light Snow,210,2012-12-11 12:53:00
7:27 AM,14.0,8.6,79,29.75,4.0,Variable,6.9,-,0.00,Snow,Light Snow,0,2012-12-11 13:27:00
7:53 AM,14.0,9.0,80,29.83,6.0,Variable,4.6,-,0.00,Snow,Light Snow,0,2012-12-11 13:53:00
8:23 AM,12.2,8.6,85,29.76,4.0,SSW,6.9,-,0.00,Snow,Light Snow,210,2012-12-11 14:23:00
8:53 AM,12.9,8.1,81,29.84,4.0,WSW,5.8,-,0.00,Snow,Light Snow,240,2012-12-11 14:53:00
9:07 AM,12.2,8.6,85,29.77,2.0,Variable,6.9,-,0.00,Snow,Light Snow,0,2012-12-11 15:07:00
9:16 AM,12.2,8.6,85,29.77,1.5,Variable,3.5,-,0.00,Snow,Light Snow,0,2012-12-11 15:16:00
9:26 AM,12.2,8.6,85,29.77,2.0,Variable,3.5,-,0.00,Snow,Light Snow,0,2012-12-11 15:26:00
9:53 AM,12.9,8.1,81,29.85,2.5,Variable,5.8,-,0.00,Snow,Light Snow,0,2012-12-11 15:53:00
10:53 AM,14.0,9.0,80,29.85,2.5,SW,4.6,-,0.00,Snow,Light Snow,220,2012-12-11 16:53:00
11:05 AM,14.0,8.6,79,29.77,3.0,WSW,3.5,-,0.00,Snow,Light Snow,240,2012-12-11 17:05:00
11:21 AM,15.8,8.6,73,29.77,2.5,WSW,5.8,-,0.00,Snow,Light Snow,240,2012-12-11 17:21:00
11:53 AM,15.1,9.0,77,29.84,3.0,WSW,6.9,-,0.00,Snow,Light Snow,250,2012-12-11 17:53:00
12:53 PM,16.0,9.0,74,29.86,8.0,Variable,5.8,-,0.00,,Overcast,0,2012-12-11 18:53:00
1:53 PM,16.0,9.0,74,29.86,5.0,Variable,5.8,-,0.00,Snow,Light Snow,0,2012-12-11 19:53:00
2:53 PM,16.0,10.0,77,29.87,4.0,Variable,5.8,-,0.00,Snow,Light Snow,0,2012-12-11 20:53:00
3:46 PM,15.8,10.4,79,29.81,2.5,Calm,Calm,-,0.00,Snow,Light Snow,0,2012-12-11 21:46:00
3:53 PM,16.0,10.0,77,29.89,3.0,SW,3.5,-,0.00,Snow,Light Snow,230,2012-12-11 21:53:00
4:53 PM,14.0,9.0,80,29.93,4.0,Variable,5.8,-,0.00,Snow,Light Snow,0,2012-12-11 22:53:00
5:24 PM,12.2,8.6,85,29.86,5.0,Variable,5.8,-,0.00,Snow,Light Snow,0,2012-12-11 23:24:00
5:53 PM,12.9,7.0,77,29.95,6.0,West,4.6,-,0.00,Snow,Light Snow,270,2012-12-11 23:53:00
6:13 PM,12.2,6.8,79,29.89,9.0,Variable,3.5,-,0.00,,Overcast,0,2012-12-12 00:13:00
6:53 PM,12.0,7.0,80,29.98,10.0,Variable,3.5,-,0.00,,Overcast,0,2012-12-12 00:53:00
7:53 PM,12.0,6.1,77,29.99,7.0,WSW,3.5,-,0.00,,Overcast,250,2012-12-12 01:53:00
8:06 PM,12.2,6.8,79,29.91,5.0,Calm,Calm,-,0.00,Snow,Light Snow,0,2012-12-12 02:06:00
8:53 PM,10.9,6.1,81,30.02,8.0,Variable,3.5,-,0.00,,Overcast,0,2012-12-12 02:53:00
9:24 PM,10.4,6.8,85,29.95,10.0,SW,3.5,-,N/A,,Overcast,230,2012-12-12 03:24:00
9:53 PM,8.1,3.9,83,30.05,9.0,Calm,Calm,-,N/A,,Scattered Clouds,0,2012-12-12 03:53:00
10:53 PM,3.9,-0.0,84,30.06,7.0,Calm,Calm,-,N/A,,Clear,0,2012-12-12 04:53:00
11:53 PM,-0.0,-5.1,79,30.09,9.0,Calm,Calm,-,N/A,,Clear,0,2012-12-12 05:53:00